Location: Gälforsberget
(66.6500°N, 22.4167°E)
Time: 07:32:15
(UTC+00:00)

Terra - Pass Details

Date: 11 April 2026
Orbit: 688 x 691 km, 97.9° (Epoch: 12 May)

Event Time Altitude Azimuth Distance (km) Brightness Sun altitude
Rises 18:57:47 0° 180° (S) 3,059 4.8 -5.6°
Reaches altitude 10° 19:00:06 10° 186° (S) 2,146 4.0 -5.8°
Maximum altitude 19:04:38 47° 260° (W) 924 2.8 -6.1°
Drops below altitude 10° 19:09:12 10° 335° (NNW) 2,157 5.6 -6.5°
Sets 19:11:33 0° 341° (NNW) 3,077 6.3 -6.7°
